Location: Piolenc
(44.1794°N, 4.7641°E)
Time: 04:41:37
(UTC+00:00)

Cosmos 1300 - Pass Details

Date: 27 January 2021
Orbit: 511 x 513 km, 82.5° (Epoch: 27 February)

Event Time Altitude Azimuth Distance (km) Brightness Sun altitude
Rises 05:38:54 0° 195° (SSW) 2,612 6.2 -15.3°
Reaches altitude 10° 05:41:02 10° 199° (SSW) 1,731 5.3 -14.9°
Maximum altitude 05:44:47 61° 280° (W) 589 2.6 -14.3°
Drops below altitude 10° 05:48:35 10° 1° (N) 1,747 5.3 -13.6°
Sets 05:50:45 0° 6° (N) 2,639 6.2 -13.2°
